| time (UTC) | temp F | wind direction | speed MPH | gust MPH | rain 1hr in | rain 24hr in | rain mn in | humidity % | barometer mb |
| 20260905024032 | 74 | 8 | 0.0 | 2.0 | 0.00 | 2.13 | 2.13 | 94 | 1008.9 |
| 20260905023527 | 74 | 298 | 0.0 | 1.0 | 0.00 | 2.13 | 2.13 | 93 | 1009.0 |
| 20260905023027 | 74 | 301 | 0.0 | 1.0 | 0.00 | 2.13 | 2.13 | 92 | 1009.1 |
| 20260905022929 | 75 | 242 | 0.0 | 2.0 | 0.00 | 2.13 | 2.13 | 92 | 1008.7 |
| 20260905022521 | 75 | 242 | 0.0 | 2.0 | 0.00 | 2.13 | 2.13 | 92 | 1008.7 |
| 20260905022016 | 75 | 335 | 0.0 | 2.0 | 0.00 | 2.13 | 2.13 | 92 | 1008.8 |
| 20260905021918 | 75 | 284 | 2.0 | 3.0 | 0.00 | 2.13 | 2.13 | 92 | 1009.1 |
| 20260905021516 | 75 | 284 | 2.0 | 3.0 | 0.00 | 2.13 | 2.13 | 92 | 1009.1 |
| 20260905021417 | 75 | 276 | 1.0 | 2.0 | 0.00 | 2.13 | 2.13 | 92 | 1009.0 |
| 20260905021011 | 75 | 276 | 1.0 | 2.0 | 0.00 | 2.13 | 2.13 | 92 | 1009.0 |
| 20260905020506 | 75 | 335 | 0.0 | 2.0 | 0.00 | 2.13 | 2.13 | 91 | 1008.9 |
| 20260905020006 | 75 | 271 | 0.0 | 4.0 | 0.00 | 2.13 | 2.13 | 92 | 1008.8 |
| 20260905015504 | 75 | 275 | 0.0 | 2.0 | 0.00 | 2.13 | 2.13 | 93 | 1008.7 |
| 20260905015003 | 75 | 310 | 0.0 | 2.0 | 0.00 | 2.13 | 2.13 | 93 | 1008.6 |
| 20260905014900 | 75 | 263 | 1.0 | 2.0 | 0.00 | 2.13 | 2.13 | 93 | 1008.7 |
| 20260905014458 | 75 | 263 | 1.0 | 2.0 | 0.00 | 2.13 | 2.13 | 93 | 1008.7 |
| 20260905013954 | 75 | 281 | 2.0 | 4.0 | 0.00 | 2.13 | 2.13 | 92 | 1008.8 |
| 20260905013859 | 74 | 246 | 0.0 | 2.0 | 0.00 | 2.13 | 2.13 | 92 | 1008.7 |
| 20260905013450 | 74 | 246 | 0.0 | 2.0 | 0.00 | 2.13 | 2.13 | 92 | 1008.7 |
| 20260905013354 | 75 | 207 | 0.0 | 2.0 | 0.00 | 2.13 | 2.13 | 92 | 1008.8 |
| 20260905012946 | 75 | 207 | 0.0 | 2.0 | 0.00 | 2.13 | 2.13 | 92 | 1008.8 |
| 20260905012440 | 74 | 245 | 0.0 | 2.0 | 0.00 | 2.13 | 2.13 | 93 | 1008.6 |
| 20260905012348 | 74 | 278 | 0.0 | 2.0 | 0.00 | 2.13 | 2.13 | 94 | 1008.4 |
| 20260905011937 | 74 | 278 | 0.0 | 2.0 | 0.00 | 2.13 | 2.13 | 94 | 1008.4 |
| 20260905011832 | 75 | 212 | 0.0 | 1.0 | 0.00 | 2.13 | 2.13 | 94 | 1008.5 |
| 20260905011433 | 75 | 212 | 0.0 | 1.0 | 0.00 | 2.13 | 2.13 | 94 | 1008.5 |
| 20260905011332 | 75 | 233 | 0.0 | 2.0 | 0.00 | 2.13 | 2.13 | 94 | 1008.4 |
| 20260905010928 | 75 | 233 | 0.0 | 2.0 | 0.00 | 2.13 | 2.13 | 94 | 1008.4 |
| 20260905010423 | 75 | 244 | 1.0 | 2.0 | 0.00 | 2.13 | 2.13 | 94 | 1008.4 |
| 20260905005919 | 75 | 266 | 1.0 | 2.0 | 0.00 | 2.13 | 2.13 | 93 | 1008.5 |
| 20260905005825 | 75 | 246 | 1.0 | 2.0 | 0.00 | 2.13 | 2.13 | 92 | 1008.6 |
| 20260905005415 | 75 | 246 | 1.0 | 2.0 | 0.00 | 2.13 | 2.13 | 92 | 1008.6 |
| 20260905005320 | 76 | 187 | 0.0 | 1.0 | 0.00 | 2.13 | 2.13 | 92 | 1008.4 |
| 20260905004910 | 76 | 187 | 0.0 | 1.0 | 0.00 | 2.13 | 2.13 | 92 | 1008.4 |
| 20260905004819 | 76 | 238 | 0.0 | 2.0 | 0.00 | 2.13 | 2.13 | 92 | 1008.4 |
| 20260905004410 | 76 | 238 | 0.0 | 2.0 | 0.00 | 2.13 | 2.13 | 92 | 1008.4 |
| 20260905003905 | 76 | 228 | 0.0 | 1.0 | 0.00 | 2.13 | 2.13 | 90 | 1008.7 |
| 20260905003400 | 76 | 261 | 1.0 | 3.0 | 0.00 | 2.13 | 2.13 | 90 | 1008.7 |
| 20260905002856 | 76 | 264 | 2.0 | 3.0 | 0.00 | 2.13 | 2.13 | 90 | 1008.6 |
| 20260905002350 | 76 | 291 | 2.0 | 4.0 | 0.00 | 2.13 | 2.13 | 92 | 1008.7 |
| 20260905001845 | 75 | 250 | 0.0 | 2.0 | 0.00 | 2.13 | 2.13 | 92 | 1008.6 |
| 20260905001344 | 75 | 321 | 2.0 | 3.0 | 0.00 | 2.13 | 2.13 | 92 | 1008.4 |
| 20260905000839 | 76 | 283 | 0.0 | 2.0 | 0.00 | 2.13 | 2.13 | 92 | 1008.0 |
| 20260905000335 | 76 | 205 | 0.0 | 2.0 | 0.00 | 2.13 | 2.13 | 91 | 1008.1 |
| 20260904235831 | 76 | 262 | 1.0 | 2.0 | 0.00 | 2.13 | 2.13 | 91 | 1008.3 |
| 20260904235326 | 76 | 233 | 1.0 | 2.0 | 0.00 | 2.13 | 2.13 | 91 | 1007.9 |
| 20260904234821 | 76 | 269 | 0.0 | 2.0 | 0.00 | 2.13 | 2.13 | 89 | 1008.1 |
| 20260904234321 | 77 | 278 | 3.0 | 4.0 | 0.00 | 2.13 | 2.13 | 90 | 1008.0 |
| 20260904233817 | 76 | 349 | 1.0 | 2.0 | 0.00 | 2.13 | 2.13 | 92 | 1007.7 |
| 20260904233313 | 76 | 234 | 2.0 | 2.0 | 0.00 | 2.13 | 2.13 | 91 | 1007.6 |
| 20260904232809 | 76 | 188 | 0.0 | 1.0 | 0.00 | 2.13 | 2.13 | 91 | 1007.4 |
| 20260904232306 | 76 | 256 | 0.0 | 2.0 | 0.00 | 2.13 | 2.13 | 91 | 1007.6 |
| 20260904231801 | 77 | 240 | 0.0 | 2.0 | 0.00 | 2.13 | 2.13 | 90 | 1007.6 |
| 20260904231255 | 77 | 246 | 0.0 | 1.0 | 0.00 | 2.13 | 2.13 | 89 | 1007.4 |
| 20260904230751 | 78 | 165 | 0.0 | 2.0 | 0.00 | 2.13 | 2.13 | 89 | 1007.3 |
| 20260904230249 | 78 | 232 | 0.0 | 3.0 | 0.00 | 2.13 | 2.13 | 86 | 1007.7 |
| 20260904225744 | 78 | 269 | 1.0 | 2.0 | 0.00 | 2.13 | 2.13 | 85 | 1007.9 |
| 20260904225238 | 79 | 301 | 1.0 | 1.0 | 0.00 | 2.13 | 2.13 | 86 | 1007.8 |
| 20260904224737 | 79 | 299 | 1.0 | 3.0 | 0.00 | 2.13 | 2.13 | 83 | 1007.6 |
| 20260904224233 | 80 | 213 | 0.0 | 1.0 | 0.00 | 2.13 | 2.13 | 85 | 1007.8 |
| 20260904223732 | 81 | 309 | 1.0 | 3.0 | 0.00 | 2.13 | 2.13 | 75 | 1008.2 |
| 20260904223227 | 81 | 281 | 2.0 | 3.0 | 0.00 | 2.13 | 2.13 | 76 | 1008.2 |
| 20260904222723 | 81 | 340 | 0.0 | 2.0 | 0.00 | 2.13 | 2.13 | 85 | 1008.5 |
| 20260904222218 | 81 | 266 | 1.0 | 2.0 | 0.00 | 2.13 | 2.13 | 86 | 1008.4 |
| 20260904221718 | 81 | 235 | 1.0 | 2.0 | 0.00 | 2.13 | 2.13 | 86 | 1009.0 |
| 20260904221213 | 81 | 275 | 0.0 | 3.0 | 0.00 | 2.13 | 2.13 | 87 | 1008.9 |
| 20260904220707 | 81 | 287 | 3.0 | 3.0 | 0.00 | 2.13 | 2.13 | 92 | 1009.0 |
| 20260904220202 | 81 | 251 | 0.0 | 1.0 | 0.00 | 2.13 | 2.13 | 91 | 1009.0 |
| 20260904215702 | 82 | 222 | 1.0 | 3.0 | 0.00 | 2.13 | 2.13 | 89 | 1009.1 |
| 20260904215158 | 81 | 309 | 3.0 | 3.0 | 0.00 | 2.13 | 2.13 | 90 | 1009.1 |
| 20260904214653 | 81 | 240 | 0.0 | 2.0 | 0.00 | 2.13 | 2.13 | 90 | 1008.8 |
| 20260904214148 | 81 | 253 | 0.0 | 2.0 | 0.00 | 2.13 | 2.13 | 89 | 1008.7 |
| 20260904213646 | 82 | 252 | 0.0 | 2.0 | 0.00 | 2.13 | 2.13 | 88 | 1008.9 |
| 20260904213143 | 82 | 236 | 1.0 | 2.0 | 0.00 | 2.13 | 2.13 | 88 | 1009.0 |
| 20260904212638 | 82 | 309 | 0.0 | 2.0 | 0.00 | 2.13 | 2.13 | 88 | 1008.8 |
| 20260904212133 | 83 | 339 | 0.0 | 2.0 | 0.00 | 2.13 | 2.13 | 87 | 1008.5 |
| 20260904211632 | 83 | 283 | 0.0 | 1.0 | 0.00 | 2.13 | 2.13 | 86 | 1008.2 |
| 20260904211127 | 84 | 223 | 0.0 | 2.0 | 0.00 | 2.13 | 2.13 | 86 | 1008.5 |
| 20260904210621 | 85 | 284 | 0.0 | 2.0 | 0.00 | 2.13 | 2.13 | 82 | 1008.5 |
| 20260904210117 | 85 | 295 | 3.0 | 4.0 | 0.00 | 2.13 | 2.13 | 82 | 1008.9 |
| 20260904205607 | 84 | 286 | 2.0 | 3.0 | 0.00 | 2.13 | 2.13 | 84 | 1008.6 |
| 20260904205103 | 84 | 306 | 1.0 | 2.0 | 0.00 | 2.13 | 2.13 | 84 | 1008.4 |
| 20260904204559 | 84 | 198 | 0.0 | 1.0 | 0.00 | 2.13 | 2.13 | 83 | 1008.3 |
| 20260904204055 | 85 | 259 | 0.0 | 1.0 | 0.00 | 2.13 | 2.13 | 83 | 1008.3 |
| 20260904203550 | 86 | 297 | 0.0 | 3.0 | 0.00 | 2.13 | 2.13 | 81 | 1008.5 |
| 20260904203047 | 85 | 244 | 0.0 | 1.0 | 0.00 | 2.13 | 2.13 | 79 | 1008.6 |
| 20260904202542 | 86 | 286 | 0.0 | 3.0 | 0.00 | 2.13 | 2.13 | 79 | 1008.3 |
| 20260904202038 | 86 | 263 | 1.0 | 1.0 | 0.00 | 2.13 | 2.13 | 78 | 1008.3 |
| 20260904201534 | 86 | 231 | 0.0 | 2.0 | 0.00 | 2.13 | 2.13 | 78 | 1008.3 |
| 20260904201028 | 88 | 237 | 0.0 | 2.0 | 0.00 | 2.13 | 2.13 | 73 | 1008.2 |
| 20260904200527 | 88 | 257 | 0.0 | 2.0 | 0.00 | 2.13 | 2.13 | 68 | 1008.5 |
| 20260904200023 | 88 | 130 | 0.0 | 2.0 | 0.00 | 2.13 | 2.13 | 68 | 1008.6 |
| 20260904195521 | 89 | 233 | 0.0 | 3.0 | 0.00 | 2.13 | 2.13 | 68 | 1008.6 |
| 20260904195021 | 89 | 322 | 0.0 | 4.0 | 0.00 | 2.13 | 2.13 | 67 | 1008.7 |
| 20260904194515 | 90 | 229 | 2.0 | 2.0 | 0.00 | 2.13 | 2.13 | 70 | 1008.9 |
| 20260904194010 | 90 | 345 | 1.0 | 2.0 | 0.00 | 2.13 | 2.13 | 67 | 1008.8 |
| 20260904193505 | 89 | 348 | 0.0 | 2.0 | 0.00 | 2.13 | 2.13 | 69 | 1008.5 |
| 20260904193002 | 88 | 322 | 0.0 | 1.0 | 0.00 | 2.13 | 2.13 | 70 | 1008.6 |
| 20260904192501 | 90 | 343 | 0.0 | 2.0 | 0.00 | 2.13 | 2.13 | 66 | 1008.7 |
| 20260904191957 | 90 | 262 | 0.0 | 3.0 | 0.00 | 2.13 | 2.13 | 63 | 1008.8 |
| 20260904191453 | 89 | 304 | 3.0 | 3.0 | 0.00 | 2.13 | 2.13 | 61 | 1008.8 |
| 20260904190950 | 89 | 209 | 0.0 | 2.0 | 0.00 | 2.13 | 2.13 | 63 | 1008.9 |
| 20260904190445 | 89 | 239 | 1.0 | 2.0 | 0.00 | 2.13 | 2.13 | 64 | 1009.1 |
| 20260904185941 | 89 | 238 | 2.0 | 3.0 | 0.00 | 2.13 | 2.13 | 65 | 1009.0 |
| 20260904185437 | 89 | 294 | 3.0 | 3.0 | 0.00 | 2.13 | 2.13 | 65 | 1009.1 |
| 20260904184937 | 89 | 246 | 1.0 | 4.0 | 0.00 | 2.13 | 2.13 | 67 | 1009.2 |
| 20260904184431 | 90 | 310 | 3.0 | 3.0 | 0.00 | 2.13 | 2.13 | 65 | 1009.4 |
| 20260904183927 | 88 | 351 | 1.0 | 3.0 | 0.00 | 2.13 | 2.13 | 64 | 1009.3 |
| 20260904183422 | 89 | 229 | 0.0 | 3.0 | 0.00 | 2.13 | 2.13 | 64 | 1009.2 |
| 20260904182917 | 89 | 66 | 0.0 | 4.0 | 0.00 | 2.13 | 2.13 | 63 | 1009.4 |
| 20260904182413 | 89 | 294 | 0.0 | 3.0 | 0.00 | 2.13 | 2.13 | 64 | 1009.6 |
| 20260904181907 | 89 | 286 | 2.0 | 5.0 | 0.00 | 2.13 | 2.13 | 65 | 1009.7 |
| 20260904181402 | 89 | 352 | 0.0 | 2.0 | 0.00 | 2.13 | 2.13 | 66 | 1009.8 |
| 20260904180857 | 89 | 5 | 1.0 | 3.0 | 0.00 | 2.13 | 2.13 | 67 | 1009.7 |
| 20260904180353 | 89 | 105 | 0.0 | 2.0 | 0.00 | 2.13 | 2.13 | 66 | 1009.6 |
| 20260904175852 | 88 | 202 | 1.0 | 4.0 | 0.00 | 2.13 | 2.13 | 66 | 1009.7 |
| 20260904175350 | 88 | 10 | 0.0 | 3.0 | 0.00 | 2.13 | 2.13 | 66 | 1010.0 |
| 20260904174844 | 88 | 353 | 2.0 | 3.0 | 0.00 | 2.13 | 2.13 | 67 | 1009.8 |
| 20260904174341 | 88 | 108 | 0.0 | 4.0 | 0.00 | 2.13 | 2.13 | 70 | 1009.9 |
| 20260904173837 | 88 | 253 | 0.0 | 3.0 | 0.00 | 2.13 | 2.13 | 67 | 1010.0 |
| 20260904173332 | 86 | 283 | 2.0 | 5.0 | 0.00 | 2.13 | 2.13 | 67 | 1010.0 |
| 20260904172828 | 88 | 249 | 1.0 | 2.0 | 0.00 | 2.13 | 2.13 | 69 | 1010.1 |
| 20260904172327 | 86 | 299 | 1.0 | 4.0 | 0.00 | 2.13 | 2.13 | 67 | 1009.9 |
| 20260904171822 | 86 | 323 | 2.0 | 4.0 | 0.00 | 2.13 | 2.13 | 67 | 1009.9 |
| 20260904171317 | 85 | 262 | 3.0 | 4.0 | 0.00 | 2.13 | 2.13 | 67 | 1009.9 |
| 20260904170814 | 86 | 296 | 3.0 | 3.0 | 0.00 | 2.13 | 2.13 | 70 | 1009.9 |
| 20260904170309 | 86 | 294 | 3.0 | 3.0 | 0.00 | 2.13 | 2.13 | 70 | 1010.1 |
| 20260904165808 | 86 | 328 | 2.0 | 3.0 | 0.00 | 2.13 | 2.13 | 70 | 1009.9 |
| 20260904165305 | 86 | 349 | 0.0 | 3.0 | 0.00 | 2.13 | 2.13 | 73 | 1010.0 |
| 20260904164756 | 84 | 241 | 2.0 | 5.0 | 0.00 | 2.13 | 2.13 | 70 | 1010.0 |
| 20260904164252 | 86 | 0 | 3.0 | 4.0 | 0.00 | 2.13 | 2.13 | 70 | 1009.8 |
| 20260904163748 | 86 | 301 | 3.0 | 3.0 | 0.00 | 2.13 | 2.13 | 73 | 1010.2 |
| 20260904163243 | 86 | 326 | 0.0 | 4.0 | 0.00 | 2.13 | 2.13 | 70 | 1010.1 |
| 20260904162742 | 86 | 269 | 0.0 | 4.0 | 0.00 | 2.13 | 2.13 | 72 | 1010.1 |
| 20260904162237 | 86 | 272 | 1.0 | 4.0 | 0.00 | 2.13 | 2.13 | 72 | 1010.1 |
| 20260904161733 | 86 | 302 | 2.0 | 4.0 | 0.00 | 2.13 | 2.13 | 73 | 1010.3 |
| 20260904161233 | 85 | 2 | 2.0 | 4.0 | 0.00 | 2.13 | 2.13 | 73 | 1010.3 |
| 20260904160728 | 84 | 309 | 0.0 | 5.0 | 0.00 | 2.13 | 2.13 | 73 | 1010.2 |
| 20260904160224 | 85 | 349 | 3.0 | 4.0 | 0.00 | 2.13 | 2.13 | 73 | 1010.6 |
| 20260904155724 | 85 | 0 | 1.0 | 4.0 | 0.00 | 2.13 | 2.13 | 72 | 1010.5 |
| 20260904155223 | 85 | 251 | 3.0 | 4.0 | 0.00 | 2.13 | 2.13 | 73 | 1010.4 |
| 20260904154722 | 85 | 98 | 1.0 | 4.0 | 0.00 | 2.13 | 2.13 | 74 | 1010.5 |
| 20260904154216 | 85 | 306 | 2.0 | 3.0 | 0.00 | 2.13 | 2.13 | 75 | 1010.7 |
| 20260904153712 | 84 | 311 | 5.0 | 6.0 | 0.00 | 2.13 | 2.13 | 73 | 1010.4 |
| 20260904153207 | 85 | 308 | 3.0 | 4.0 | 0.00 | 2.13 | 2.13 | 74 | 1010.6 |
| 20260904152704 | 84 | 278 | 3.0 | 4.0 | 0.00 | 2.13 | 2.13 | 75 | 1010.6 |
| 20260904152159 | 84 | 294 | 2.0 | 4.0 | 0.00 | 2.13 | 2.13 | 77 | 1010.7 |
| 20260904151654 | 83 | 331 | 2.0 | 3.0 | 0.00 | 2.13 | 2.13 | 76 | 1010.6 |
| 20260904151152 | 83 | 342 | 0.0 | 3.0 | 0.00 | 2.13 | 2.13 | 76 | 1010.3 |
| 20260904150648 | 83 | 228 | 4.0 | 5.0 | 0.00 | 2.13 | 2.13 | 75 | 1010.5 |
| 20260904150144 | 83 | 356 | 2.0 | 5.0 | 0.00 | 2.13 | 2.13 | 75 | 1010.6 |
| 20260904145642 | 83 | 294 | 3.0 | 5.0 | 0.00 | 2.13 | 2.13 | 78 | 1010.5 |
| 20260904145137 | 82 | 277 | 1.0 | 3.0 | 0.00 | 2.13 | 2.13 | 79 | 1010.5 |
| 20260904144632 | 82 | 279 | 1.0 | 4.0 | 0.00 | 2.13 | 2.13 | 80 | 1010.6 |
| 20260904144128 | 82 | 265 | 2.0 | 4.0 | 0.00 | 2.13 | 2.13 | 81 | 1010.8 |
| 20260904143624 | 82 | 279 | 2.0 | 3.0 | 0.00 | 2.13 | 2.13 | 81 | 1010.9 |
| 20260904143120 | 82 | 303 | 4.0 | 5.0 | 0.00 | 2.13 | 2.13 | 79 | 1011.0 |
| 20260904142617 | 81 | 338 | 1.0 | 4.0 | 0.00 | 2.13 | 2.13 | 81 | 1011.0 |
| 20260904142112 | 81 | 245 | 2.0 | 5.0 | 0.00 | 2.13 | 2.13 | 82 | 1010.8 |
| 20260904141607 | 81 | 317 | 2.0 | 3.0 | 0.00 | 2.13 | 2.13 | 81 | 1010.6 |
| 20260904141103 | 81 | 285 | 2.0 | 4.0 | 0.00 | 2.13 | 2.13 | 83 | 1010.6 |
| 20260904140558 | 78 | 282 | 3.0 | 3.0 | 0.00 | 2.13 | 2.13 | 84 | 1010.7 |
| 20260904140052 | 78 | 300 | 2.0 | 3.0 | 0.00 | 2.13 | 2.13 | 88 | 1010.7 |
| 20260904135551 | 76 | 7 | 1.0 | 2.0 | 0.00 | 2.13 | 2.13 | 92 | 1010.6 |
| 20260904135048 | 75 | 337 | 1.0 | 3.0 | 0.00 | 2.13 | 2.13 | 95 | 1010.5 |
| 20260904134542 | 75 | 305 | 1.0 | 2.0 | 0.00 | 2.13 | 2.13 | 98 | 1010.4 |
| 20260904134036 | 74 | 321 | 2.0 | 3.0 | 0.00 | 2.13 | 2.13 | 98 | 1010.4 |
| 20260904133531 | 75 | 314 | 0.0 | 3.0 | 0.00 | 2.13 | 2.13 | 99 | 1010.5 |
| 20260904133027 | 75 | 255 | 0.0 | 3.0 | 0.00 | 2.13 | 2.13 | 99 | 1010.5 |
| 20260904132522 | 75 | 239 | 0.0 | 2.0 | 0.00 | 2.13 | 2.13 | 99 | 1010.8 |
| 20260904132021 | 75 | 297 | 1.0 | 2.0 | 0.00 | 2.13 | 2.13 | 99 | 1010.7 |
| 20260904131516 | 75 | 250 | 1.0 | 2.0 | 0.00 | 2.13 | 2.13 | 99 | 1010.6 |
| 20260904131012 | 75 | 280 | 1.0 | 2.0 | 0.00 | 2.13 | 2.13 | 99 | 1010.7 |
| 20260904130511 | 75 | 282 | 2.0 | 3.0 | 0.00 | 2.13 | 2.13 | 99 | 1010.7 |
| 20260904130006 | 75 | 102 | 2.0 | 3.0 | 0.00 | 2.13 | 2.13 | 99 | 1010.8 |
| 20260904125502 | 75 | 74 | 2.0 | 3.0 | 0.00 | 2.13 | 2.13 | 99 | 1010.7 |
| 20260904124956 | 75 | 107 | 2.0 | 3.0 | 0.00 | 2.13 | 2.13 | 99 | 1010.6 |
| 20260904124452 | 75 | 96 | 2.0 | 4.0 | 0.00 | 2.13 | 2.13 | 99 | 1010.9 |
| 20260904123948 | 74 | 93 | 2.0 | 4.0 | 0.00 | 2.13 | 2.13 | 99 | 1010.9 |
| 20260904123442 | 74 | 97 | 3.0 | 4.0 | 0.00 | 2.13 | 2.13 | 99 | 1011.0 |
| 20260904122938 | 74 | 73 | 3.0 | 4.0 | 0.00 | 2.13 | 2.13 | 99 | 1010.8 |
| 20260904122437 | 74 | 120 | 3.0 | 4.0 | 0.00 | 2.13 | 2.13 | 99 | 1010.9 |
| 20260904121931 | 74 | 93 | 3.0 | 3.0 | 0.00 | 2.13 | 2.13 | 99 | 1011.0 |
| 20260904121428 | 74 | 68 | 3.0 | 3.0 | 0.00 | 2.13 | 2.13 | 99 | 1011.3 |
| 20260904120919 | 74 | 60 | 3.0 | 4.0 | 0.00 | 2.13 | 2.13 | 99 | 1011.2 |
| 20260904120414 | 74 | 80 | 3.0 | 4.0 | 0.00 | 2.13 | 2.13 | 99 | 1011.0 |
| 20260904115910 | 74 | 104 | 2.0 | 3.0 | 0.00 | 2.13 | 2.13 | 99 | 1011.1 |
| 20260904115405 | 74 | 104 | 3.0 | 3.0 | 0.00 | 2.13 | 2.13 | 99 | 1011.1 |
| 20260904114859 | 74 | 65 | 3.0 | 3.0 | 0.00 | 2.13 | 2.13 | 99 | 1011.0 |
| 20260904114354 | 74 | 80 | 3.0 | 4.0 | 0.00 | 2.13 | 2.13 | 99 | 1011.0 |
| 20260904113849 | 73 | 117 | 3.0 | 3.0 | 0.00 | 2.13 | 2.13 | 99 | 1011.1 |
| 20260904113348 | 74 | 82 | 3.0 | 3.0 | 0.00 | 2.13 | 2.13 | 99 | 1011.0 |
| 20260904112843 | 73 | 96 | 2.0 | 3.0 | 0.00 | 2.13 | 2.13 | 99 | 1011.2 |
| 20260904112338 | 73 | 79 | 3.0 | 4.0 | 0.00 | 2.13 | 2.13 | 99 | 1011.2 |
| 20260904111834 | 73 | 66 | 3.0 | 5.0 | 0.00 | 2.13 | 2.13 | 99 | 1011.2 |
| 20260904111330 | 73 | 89 | 3.0 | 5.0 | 0.00 | 2.13 | 2.13 | 99 | 1010.9 |
| 20260904110825 | 73 | 60 | 5.0 | 5.0 | 0.00 | 2.13 | 2.13 | 99 | 1010.2 |
| 20260904110324 | 73 | 91 | 2.0 | 3.0 | 0.02 | 2.13 | 2.13 | 99 | 1010.1 |
| 20260904105824 | 72 | 75 | 3.0 | 3.0 | 0.00 | 2.13 | 2.13 | 99 | 1009.9 |
| 20260904105320 | 72 | 77 | 3.0 | 3.0 | 0.00 | 2.13 | 2.13 | 99 | 1009.7 |
| 20260904104814 | 72 | 113 | 3.0 | 4.0 | 0.00 | 2.13 | 2.13 | 99 | 1009.7 |
| 20260904104310 | 72 | 106 | 3.0 | 3.0 | 0.00 | 2.13 | 2.13 | 99 | 1009.8 |
| 20260904103807 | 71 | 103 | 3.0 | 3.0 | 0.00 | 2.13 | 2.13 | 99 | 1009.8 |
| 20260904103306 | 71 | 109 | 2.0 | 3.0 | 0.00 | 2.13 | 2.13 | 99 | 1009.7 |
| 20260904102802 | 71 | 101 | 2.0 | 3.0 | 0.00 | 2.13 | 2.13 | 99 | 1009.9 |
| 20260904102258 | 71 | 78 | 2.0 | 3.0 | 0.00 | 2.13 | 2.13 | 99 | 1009.9 |
| 20260904101753 | 71 | 100 | 2.0 | 3.0 | 0.00 | 2.13 | 2.13 | 99 | 1009.5 |
| 20260904101249 | 71 | 85 | 2.0 | 3.0 | 0.00 | 2.13 | 2.13 | 99 | 1009.5 |
| 20260904100744 | 71 | 102 | 2.0 | 3.0 | 0.00 | 2.13 | 2.13 | 99 | 1009.5 |
| 20260904100241 | 71 | 99 | 2.0 | 3.0 | 0.00 | 2.13 | 2.13 | 99 | 1009.7 |
| 20260904095741 | 71 | 79 | 3.0 | 3.0 | 0.00 | 2.13 | 2.13 | 99 | 1009.5 |
| 20260904095241 | 71 | 98 | 2.0 | 3.0 | 0.00 | 2.13 | 2.13 | 99 | 1009.7 |
| 20260904094736 | 71 | 94 | 2.0 | 3.0 | 0.00 | 2.13 | 2.13 | 99 | 1009.7 |
| 20260904094231 | 72 | 99 | 2.0 | 3.0 | 0.00 | 2.13 | 2.13 | 99 | 1009.7 |
| 20260904093727 | 72 | 101 | 2.0 | 3.0 | 0.00 | 2.13 | 2.13 | 99 | 1009.6 |
| 20260904093227 | 72 | 98 | 2.0 | 3.0 | 0.00 | 2.13 | 2.13 | 99 | 1009.8 |
| 20260904092723 | 72 | 105 | 2.0 | 3.0 | 0.00 | 2.13 | 2.13 | 99 | 1009.8 |
| 20260904092219 | 72 | 100 | 2.0 | 3.0 | 0.00 | 2.13 | 2.13 | 99 | 1009.9 |
| 20260904091715 | 72 | 104 | 3.0 | 3.0 | 0.00 | 2.13 | 2.13 | 99 | 1009.7 |
| 20260904091210 | 72 | 86 | 2.0 | 3.0 | 0.00 | 2.13 | 2.13 | 99 | 1009.9 |
| 20260904090705 | 72 | 88 | 3.0 | 4.0 | 0.00 | 2.13 | 2.13 | 99 | 1009.8 |
| 20260904090201 | 72 | 97 | 3.0 | 3.0 | 0.00 | 2.13 | 2.13 | 99 | 1010.0 |
| 20260904085656 | 72 | 93 | 3.0 | 4.0 | 0.00 | 2.13 | 2.13 | 99 | 1009.8 |
| 20260904085155 | 72 | 87 | 3.0 | 3.0 | 0.00 | 2.13 | 2.13 | 99 | 1009.8 |
| 20260904084650 | 72 | 95 | 2.0 | 3.0 | 0.00 | 2.13 | 2.13 | 99 | 1009.9 |
| 20260904084147 | 72 | 103 | 3.0 | 3.0 | 0.00 | 2.13 | 2.13 | 99 | 1009.8 |
| 20260904083644 | 72 | 83 | 3.0 | 3.0 | 0.00 | 2.13 | 2.13 | 99 | 1009.8 |
| 20260904083139 | 72 | 95 | 2.0 | 3.0 | 0.00 | 2.13 | 2.13 | 99 | 1009.7 |
| 20260904082633 | 72 | 93 | 2.0 | 3.0 | 0.00 | 2.13 | 2.13 | 99 | 1009.7 |
| 20260904082129 | 72 | 81 | 3.0 | 3.0 | 0.00 | 2.13 | 2.13 | 99 | 1009.5 |
| 20260904081619 | 72 | 79 | 2.0 | 3.0 | 0.00 | 2.13 | 2.13 | 99 | 1009.8 |
| 20260904081114 | 72 | 73 | 2.0 | 3.0 | 0.00 | 2.13 | 2.13 | 99 | 1009.5 |
| 20260904080610 | 72 | 85 | 3.0 | 3.0 | 0.00 | 2.13 | 2.13 | 99 | 1009.6 |
| 20260904080106 | 72 | 101 | 2.0 | 3.0 | 0.00 | 2.13 | 2.13 | 99 | 1009.5 |
| 20260904075601 | 72 | 93 | 3.0 | 3.0 | 0.00 | 2.13 | 2.13 | 99 | 1009.6 |
| 20260904075056 | 72 | 92 | 2.0 | 4.0 | 0.00 | 2.13 | 2.13 | 99 | 1009.9 |
| 20260904074555 | 72 | 100 | 3.0 | 3.0 | 0.00 | 2.13 | 2.13 | 99 | 1009.8 |
| 20260904074050 | 72 | 96 | 2.0 | 3.0 | 0.02 | 2.13 | 2.13 | 99 | 1009.7 |
| 20260904073545 | 73 | 86 | 2.0 | 3.0 | 0.02 | 2.13 | 2.13 | 99 | 1009.9 |
| 20260904073041 | 73 | 96 | 3.0 | 3.0 | 0.00 | 2.12 | 2.12 | 99 | 1009.7 |
| 20260904072537 | 72 | 96 | 2.0 | 2.0 | 0.00 | 2.12 | 2.12 | 99 | 1009.6 |
| 20260904072032 | 72 | 78 | 3.0 | 4.0 | 0.00 | 2.12 | 2.12 | 99 | 1009.6 |
| 20260904071527 | 72 | 91 | 3.0 | 4.0 | 0.00 | 2.12 | 2.12 | 99 | 1009.6 |
| 20260904071022 | 72 | 98 | 2.0 | 5.0 | 0.00 | 2.12 | 2.12 | 99 | 1009.5 |
| 20260904070520 | 72 | 135 | 3.0 | 4.0 | 0.00 | 2.12 | 2.12 | 99 | 1009.4 |
| 20260904070015 | 72 | 94 | 3.0 | 4.0 | 0.00 | 2.12 | 2.12 | 99 | 1009.4 |
| 20260904065510 | 72 | 112 | 3.0 | 3.0 | 0.02 | 2.12 | 2.12 | 99 | 1009.5 |
| 20260904065007 | 72 | 94 | 3.0 | 4.0 | 0.00 | 2.12 | 2.12 | 99 | 1009.7 |
| 20260904064503 | 72 | 114 | 2.0 | 3.0 | 0.00 | 2.12 | 2.12 | 99 | 1009.7 |
| 20260904063957 | 72 | 93 | 3.0 | 4.0 | 0.00 | 2.12 | 2.12 | 99 | 1009.5 |
| 20260904063454 | 72 | 75 | 2.0 | 4.0 | 0.00 | 2.12 | 2.12 | 99 | 1009.4 |
| 20260904062949 | 72 | 78 | 3.0 | 4.0 | 0.00 | 2.12 | 2.12 | 99 | 1008.9 |
| 20260904062445 | 72 | 109 | 2.0 | 3.0 | 0.02 | 2.12 | 2.12 | 99 | 1009.4 |
| 20260904061940 | 72 | 92 | 2.0 | 3.0 | 0.02 | 2.11 | 2.11 | 99 | 1009.7 |
| 20260904061437 | 72 | 86 | 3.0 | 4.0 | 0.07 | 2.11 | 2.11 | 99 | 1010.1 |
| 20260904060932 | 72 | 85 | 3.0 | 4.0 | 0.09 | 2.11 | 2.11 | 99 | 1010.4 |
| 20260904060428 | 72 | 95 | 3.0 | 5.0 | 0.19 | 2.10 | 2.10 | 99 | 1010.8 |
| 20260904055924 | 72 | 105 | 3.0 | 4.0 | 0.26 | 2.09 | 2.09 | 99 | 1011.2 |
| 20260904055419 | 72 | 124 | 4.0 | 5.0 | 0.26 | 2.07 | 2.07 | 99 | 1011.6 |
| 20260904054915 | 72 | 133 | 3.0 | 4.0 | 0.40 | 2.05 | 2.05 | 99 | 1011.8 |
| 20260904054410 | 72 | 102 | 3.0 | 4.0 | 0.85 | 2.02 | 2.02 | 99 | 1012.4 |
| 20260904053906 | 72 | 160 | 2.0 | 4.0 | 1.51 | 1.97 | 1.97 | 99 | 1012.5 |
| 20260904053405 | 72 | 97 | 4.0 | 5.0 | 1.89 | 1.85 | 1.85 | 99 | 1013.5 |
| 20260904052901 | 72 | 133 | 1.0 | 4.0 | 2.10 | 1.70 | 1.70 | 99 | 1014.1 |
| 20260904052357 | 72 | 322 | 0.0 | 3.0 | 2.55 | 1.51 | 1.51 | 99 | 1013.0 |
| 20260904051853 | 72 | 92 | 3.0 | 5.0 | 3.80 | 1.35 | 1.35 | 99 | 1012.1 |
| 20260904051349 | 72 | 19 | 3.0 | 15.0 | 4.09 | 1.09 | 1.09 | 98 | 1012.3 |
| 20260904050848 | 73 | 325 | 5.0 | 10.0 | 2.72 | 0.66 | 0.66 | 98 | 1012.3 |
| 20260904050345 | 73 | 229 | 4.0 | 9.0 | 1.04 | 0.37 | 0.37 | 98 | 1012.6 |
| 20260904045845 | 72 | 353 | 3.0 | 5.0 | 0.02 | 0.20 | 0.20 | 98 | 1012.0 |
| 20260904045340 | 72 | 333 | 2.0 | 5.0 | 0.09 | 0.20 | 0.20 | 98 | 1010.9 |
| 20260904044834 | 72 | 335 | 1.0 | 2.0 | 0.07 | 0.20 | 0.20 | 98 | 1010.0 |
| 20260904044331 | 72 | 111 | 2.0 | 3.0 | 0.00 | 0.18 | 0.18 | 98 | 1010.5 |
| 20260904043827 | 72 | 229 | 0.0 | 2.0 | 0.02 | 0.18 | 0.18 | 98 | 1010.8 |
| 20260904043324 | 73 | 209 | 1.0 | 2.0 | 0.00 | 0.18 | 0.18 | 97 | 1010.6 |
| 20260904042824 | 73 | 119 | 1.0 | 3.0 | 0.05 | 0.18 | 0.18 | 97 | 1010.8 |
| 20260904042320 | 73 | 48 | 0.0 | 2.0 | 0.31 | 0.18 | 0.18 | 97 | 1010.2 |
| 20260904041820 | 73 | 168 | 1.0 | 3.0 | 0.73 | 0.17 | 0.17 | 97 | 1010.1 |
| 20260904041316 | 73 | 171 | 3.0 | 5.0 | 0.54 | 0.11 | 0.11 | 96 | 1011.0 |
| 20260904040811 | 74 | 265 | 2.0 | 3.0 | 0.26 | 0.04 | 0.04 | 95 | 1011.7 |
| 20260904040307 | 75 | 224 | 5.0 | 6.0 | 0.17 | 0.02 | 0.02 | 94 | 1011.4 |
| 20260904035803 | 77 | 246 | 2.0 | 4.0 | 0.00 | 0.00 | 0.00 | 92 | 1010.8 |
| 20260904035258 | 78 | 232 | 3.0 | 5.0 | 0.00 | 0.00 | 0.00 | 93 | 1010.9 |
| 20260904034757 | 79 | 252 | 1.0 | 5.0 | 0.00 | 0.00 | 0.00 | 93 | 1010.6 |
| 20260904034253 | 79 | 225 | 3.0 | 4.0 | 0.00 | 0.00 | 0.00 | 97 | 1010.4 |
| 20260904033749 | 78 | 262 | 1.0 | 4.0 | 0.00 | 0.00 | 0.00 | 97 | 1009.9 |
| 20260904033245 | 78 | 277 | 2.0 | 5.0 | 0.00 | 0.00 | 0.00 | 97 | 1009.5 |
| 20260904032741 | 78 | 291 | 1.0 | 2.0 | 0.00 | 0.00 | 0.00 | 97 | 1009.5 |
| 20260904032240 | 78 | 251 | 1.0 | 2.0 | 0.00 | 0.00 | 0.00 | 97 | 1009.8 |
| 20260904031729 | 78 | 216 | 0.0 | 3.0 | 0.00 | 0.00 | 0.00 | 97 | 1009.6 |
| 20260904031224 | 78 | 308 | 0.0 | 3.0 | 0.00 | 0.00 | 0.00 | 97 | 1009.7 |
| 20260904030720 | 78 | 272 | 1.0 | 2.0 | 0.00 | 0.00 | 0.00 | 97 | 1009.9 |
| 20260904030215 | 78 | 252 | 1.0 | 3.0 | 0.00 | 0.00 | 0.00 | 97 | 1009.8 |
| 20260904025712 | 78 | 278 | 2.0 | 2.0 | 0.00 | 0.00 | 0.00 | 97 | 1010.0 |
| 20260904025206 | 78 | 266 | 3.0 | 3.0 | 0.00 | 0.00 | 0.00 | 97 | 1010.0 |
| 20260904024702 | 78 | 244 | 1.0 | 2.0 | 0.00 | 0.00 | 0.00 | 97 | 1010.0 |